| time (UTC) | temp F | wind direction | speed MPH | gust MPH | rain 1hr in | rain 24hr in | rain mn in | humidity % | barometer mb |
| 20260502160636 | 75 | 342 | 3.0 | 3.0 | 0.00 | 0.00 | 0.00 | ||
| 20260502160135 | 74 | 73 | 1.0 | 0.0 | 0.00 | 0.00 | 0.00 | ||
| 20260502152136 | 70 | 307 | 1.0 | 1.0 | 0.00 | 0.00 | 0.00 | ||
| 20260502151636 | 70 | 260 | 1.0 | 0.0 | 0.00 | 0.00 | 0.00 | ||
| 20260502151136 | 70 | 338 | 0.0 | 0.0 | 0.00 | 0.00 | 0.00 | ||
| 20260502150636 | 69 | 307 | 2.0 | 3.0 | 0.00 | 0.00 | 0.00 | ||
| 20260502150136 | 68 | 344 | 1.0 | 3.0 | 0.00 | 0.00 | 0.00 | ||
| 20260502130136 | 56 | 358 | 0.0 | 0.0 | 0.00 | 0.00 | 0.00 | ||
| 20260502123636 | 53 | 222 | 0.0 | 0.0 | 0.00 | 0.00 | 0.00 | ||
| 20260502122636 | 51 | 222 | 0.0 | 0.0 | 0.00 | 0.00 | 0.00 | ||
| 20260502121636 | 50 | 222 | 0.0 | 0.0 | 0.00 | 0.00 | 0.00 | ||
| 20260502121136 | 49 | 222 | 0.0 | 0.0 | 0.00 | 0.00 | 0.00 | ||
| 20260502120636 | 49 | 222 | 0.0 | 0.0 | 0.00 | 0.00 | 0.00 | ||
| 20260502120136 | 49 | 222 | 0.0 | 0.0 | 0.00 | 0.00 | 0.00 | ||
| 20260502115636 | 49 | 222 | 0.0 | 0.0 | 0.00 | 0.00 | 0.00 | ||
| 20260502115136 | 49 | 222 | 0.0 | 0.0 | 0.00 | 0.00 | 0.00 | ||
| 20260502114637 | 49 | 222 | 0.0 | 0.0 | 0.00 | 0.00 | 0.00 | ||
| 20260502114136 | 49 | 222 | 0.0 | 0.0 | 0.00 | 0.00 | 0.00 | ||
| 20260502113637 | 50 | 237 | 0.0 | 1.0 | 0.00 | 0.00 | 0.00 | ||
| 20260502112636 | 49 | 229 | 0.0 | 0.0 | 0.00 | 0.00 | 0.00 | ||
| 20260502110636 | 50 | 229 | 0.0 | 0.0 | 0.00 | 0.00 | 0.00 | ||
| 20260502105637 | 50 | 229 | 0.0 | 0.0 | 0.00 | 0.00 | 0.00 | ||
| 20260502104137 | 51 | 344 | 0.0 | 0.0 | 0.00 | 0.00 | 0.00 | ||
| 20260502103637 | 51 | 344 | 0.0 | 0.0 | 0.00 | 0.00 | 0.00 | ||
| 20260502103136 | 51 | 344 | 0.0 | 0.0 | 0.00 | 0.00 | 0.00 | ||
| 20260502102637 | 51 | 344 | 0.0 | 0.0 | 0.00 | 0.00 | 0.00 | ||
| 20260502102137 | 51 | 344 | 0.0 | 0.0 | 0.00 | 0.00 | 0.00 | ||
| 20260502101637 | 51 | 344 | 0.0 | 0.0 | 0.00 | 0.00 | 0.00 | ||
| 20260502101137 | 51 | 344 | 0.0 | 0.0 | 0.00 | 0.00 | 0.00 | ||
| 20260502100637 | 51 | 272 | 0.0 | 0.0 | 0.00 | 0.00 | 0.00 | ||
| 20260502100136 | 51 | 272 | 0.0 | 0.0 | 0.00 | 0.00 | 0.00 | ||
| 20260502091137 | 51 | 229 | 0.0 | 0.0 | 0.00 | 0.00 | 0.00 | ||
| 20260502090637 | 51 | 229 | 0.0 | 0.0 | 0.00 | 0.00 | 0.00 | ||
| 20260502090137 | 51 | 229 | 0.0 | 0.0 | 0.00 | 0.00 | 0.00 | ||
| 20260502070637 | 52 | 229 | 0.0 | 0.0 | 0.00 | 0.00 | 0.00 | ||
| 20260502070137 | 52 | 229 | 0.0 | 0.0 | 0.00 | 0.00 | 0.00 | ||
| 20260502065137 | 52 | 229 | 0.0 | 0.0 | 0.00 | 0.00 | 0.00 | ||
| 20260502064637 | 51 | 229 | 0.0 | 0.0 | 0.00 | 0.00 | 0.00 | ||
| 20260502064137 | 51 | 229 | 0.0 | 0.0 | 0.00 | 0.00 | 0.00 | ||
| 20260502063639 | 52 | 229 | 0.0 | 0.0 | 0.00 | 0.00 | 0.00 | ||
| 20260502063137 | 52 | 229 | 0.0 | 0.0 | 0.00 | 0.00 | 0.00 | ||
| 20260502062637 | 52 | 229 | 0.0 | 0.0 | 0.00 | 0.00 | 0.00 | ||
| 20260502062138 | 52 | 229 | 0.0 | 0.0 | 0.00 | 0.00 | 0.00 | ||
| 20260502061637 | 52 | 229 | 0.0 | 0.0 | 0.00 | 0.00 | 0.00 | ||
| 20260502061137 | 53 | 229 | 0.0 | 0.0 | 0.00 | 0.00 | 0.00 | ||
| 20260502060637 | 53 | 229 | 0.0 | 0.0 | 0.00 | 0.00 | 0.00 | ||
| 20260502060138 | 54 | 229 | 0.0 | 0.0 | 0.00 | 0.00 | 0.00 | ||
| 20260502055637 | 54 | 229 | 0.0 | 0.0 | 0.00 | 0.00 | 0.00 | ||
| 20260502055137 | 54 | 115 | 0.0 | 0.0 | 0.00 | 0.00 | 0.00 | ||
| 20260502054638 | 53 | 115 | 0.0 | 0.0 | 0.00 | 0.00 | 0.00 | ||
| 20260502054138 | 53 | 115 | 0.0 | 0.0 | 0.00 | 0.00 | 0.00 | ||
| 20260502053638 | 53 | 115 | 0.0 | 0.0 | 0.00 | 0.00 | 0.00 | ||
| 20260502053138 | 53 | 115 | 0.0 | 0.0 | 0.00 | 0.00 | 0.00 | ||
| 20260502052638 | 53 | 115 | 0.0 | 0.0 | 0.00 | 0.00 | 0.00 | ||
| 20260502052138 | 54 | 115 | 0.0 | 0.0 | 0.00 | 0.00 | 0.00 | ||
| 20260502051638 | 54 | 115 | 0.0 | 0.0 | 0.00 | 0.00 | 0.00 | ||
| 20260502051211 | 54 | 115 | 0.0 | 0.0 | 0.00 | 0.00 | 0.00 | ||
| 20260502051138 | 54 | 115 | 0.0 | 0.0 | 0.00 | 0.00 | 0.00 | ||
| 20260502050638 | 54 | 115 | 0.0 | 0.0 | 0.00 | 0.00 | 0.00 | ||
| 20260502050138 | 54 | 115 | 0.0 | 0.0 | 0.00 | 0.00 | 0.00 | ||
| 20260502045638 | 55 | 115 | 0.0 | 0.0 | 0.00 | 0.00 | 0.00 | ||
| 20260502045138 | 55 | 115 | 0.0 | 0.0 | 0.00 | 0.00 | 0.00 | ||
| 20260502044638 | 55 | 115 | 0.0 | 0.0 | 0.00 | 0.00 | 0.00 | ||
| 20260502044138 | 55 | 115 | 0.0 | 0.0 | 0.00 | 0.00 | 0.00 | ||
| 20260502043638 | 55 | 115 | 0.0 | 0.0 | 0.00 | 0.00 | 0.00 | ||
| 20260502043138 | 55 | 115 | 0.0 | 0.0 | 0.00 | 0.00 | 0.00 | ||
| 20260502042638 | 55 | 115 | 0.0 | 0.0 | 0.00 | 0.00 | 0.00 | ||
| 20260502042138 | 56 | 115 | 0.0 | 0.0 | 0.00 | 0.00 | 0.00 | ||
| 20260502041138 | 56 | 115 | 0.0 | 0.0 | 0.00 | 0.00 | 0.00 | ||
| 20260502040638 | 57 | 115 | 0.0 | 0.0 | 0.00 | 0.00 | 0.00 | ||
| 20260502040138 | 58 | 115 | 0.0 | 0.0 | 0.00 | 0.00 | 0.00 | ||
| 20260502035638 | 58 | 115 | 0.0 | 0.0 | 0.00 | 0.00 | 0.00 | ||
| 20260502035138 | 58 | 115 | 0.0 | 0.0 | 0.00 | 0.00 | 0.00 | ||
| 20260502034638 | 59 | 115 | 0.0 | 0.0 | 0.00 | 0.00 | 0.00 | ||
| 20260502034139 | 59 | 115 | 0.0 | 0.0 | 0.00 | 0.00 | 0.00 | ||
| 20260502033638 | 59 | 115 | 0.0 | 0.0 | 0.00 | 0.00 | 0.00 | ||
| 20260502033138 | 59 | 115 | 0.0 | 0.0 | 0.00 | 0.00 | 0.00 | ||
| 20260502032639 | 59 | 115 | 0.0 | 0.0 | 0.00 | 0.00 | 0.00 | ||
| 20260502032138 | 59 | 115 | 0.0 | 0.0 | 0.00 | 0.00 | 0.00 | ||
| 20260502031638 | 59 | 115 | 0.0 | 0.0 | 0.00 | 0.00 | 0.00 | ||
| 20260502031139 | 59 | 115 | 0.0 | 0.0 | 0.00 | 0.00 | 0.00 | ||
| 20260502030638 | 59 | 115 | 0.0 | 0.0 | 0.00 | 0.00 | 0.00 | ||
| 20260502030138 | 59 | 115 | 0.0 | 0.0 | 0.00 | 0.00 | 0.00 | ||
| 20260502025638 | 59 | 115 | 0.0 | 0.0 | 0.00 | 0.00 | 0.00 | ||
| 20260502025139 | 59 | 115 | 0.0 | 0.0 | 0.00 | 0.00 | 0.00 | ||
| 20260502024713 | 60 | 115 | 0.0 | 0.0 | 0.00 | 0.00 | 0.00 | ||
| 20260502024638 | 60 | 115 | 0.0 | 0.0 | 0.00 | 0.00 | 0.00 | ||
| 20260502024138 | 60 | 115 | 0.0 | 0.0 | 0.00 | 0.00 | 0.00 | ||
| 20260502023639 | 60 | 115 | 0.0 | 0.0 | 0.00 | 0.00 | 0.00 | ||
| 20260502023138 | 60 | 115 | 0.0 | 0.0 | 0.00 | 0.00 | 0.00 | ||
| 20260502022638 | 60 | 115 | 0.0 | 0.0 | 0.00 | 0.00 | 0.00 | ||
| 20260502022138 | 60 | 115 | 0.0 | 0.0 | 0.00 | 0.00 | 0.00 | ||
| 20260502021638 | 60 | 115 | 0.0 | 0.0 | 0.00 | 0.00 | 0.00 | ||
| 20260502021138 | 61 | 115 | 0.0 | 0.0 | 0.00 | 0.00 | 0.00 | ||
| 20260502020638 | 60 | 115 | 0.0 | 0.0 | 0.00 | 0.00 | 0.00 | ||
| 20260502020139 | 61 | 115 | 0.0 | 0.0 | 0.00 | 0.00 | 0.00 | ||
| 20260502015638 | 61 | 115 | 0.0 | 0.0 | 0.00 | 0.00 | 0.00 | ||
| 20260502015138 | 61 | 115 | 0.0 | 0.0 | 0.00 | 0.00 | 0.00 | ||
| 20260502014639 | 62 | 115 | 0.0 | 0.0 | 0.00 | 0.00 | 0.00 | ||
| 20260502014138 | 62 | 115 | 0.0 | 0.0 | 0.00 | 0.00 | 0.00 | ||
| 20260502013638 | 62 | 115 | 0.0 | 0.0 | 0.00 | 0.00 | 0.00 | ||
| 20260502013139 | 62 | 115 | 0.0 | 0.0 | 0.00 | 0.00 | 0.00 | ||
| 20260502012639 | 62 | 115 | 0.0 | 0.0 | 0.00 | 0.00 | 0.00 | ||
| 20260502012138 | 62 | 100 | 0.0 | 2.0 | 0.00 | 0.00 | 0.00 | ||
| 20260502011638 | 62 | 79 | 0.0 | 0.0 | 0.00 | 0.00 | 0.00 | ||
| 20260502011138 | 62 | 79 | 0.0 | 0.0 | 0.00 | 0.00 | 0.00 | ||
| 20260502010638 | 63 | 70 | 0.0 | 1.0 | 0.00 | 0.00 | 0.00 | ||
| 20260502010138 | 62 | 86 | 0.0 | 0.0 | 0.00 | 0.00 | 0.00 | ||
| 20260502005638 | 63 | 217 | 0.0 | 0.0 | 0.00 | 0.00 | 0.00 | ||
| 20260502005139 | 63 | 62 | 0.0 | 0.0 | 0.00 | 0.00 | 0.00 | ||
| 20260502004139 | 63 | 30 | 0.0 | 3.0 | 0.00 | 0.00 | 0.00 | ||
| 20260502003639 | 64 | 108 | 1.0 | 2.0 | 0.00 | 0.00 | 0.00 | ||
| 20260502003139 | 64 | 149 | 0.0 | 0.0 | 0.00 | 0.00 | 0.00 | ||
| 20260502002639 | 64 | 107 | 0.0 | 0.0 | 0.00 | 0.00 | 0.00 | ||
| 20260502002139 | 64 | 107 | 0.0 | 0.0 | 0.00 | 0.00 | 0.00 | ||
| 20260502001139 | 64 | 62 | 0.0 | 0.0 | 0.00 | 0.00 | 0.00 | ||
| 20260502000639 | 64 | 62 | 0.0 | 0.0 | 0.00 | 0.00 | 0.00 | ||
| 20260502000139 | 64 | 62 | 0.0 | 0.0 | 0.00 | 0.00 | 0.00 | ||
| 20260501235639 | 64 | 62 | 0.0 | 0.0 | 0.00 | 0.00 | 0.00 | ||
| 20260501235139 | 64 | 62 | 0.0 | 0.0 | 0.00 | 0.00 | 0.00 | ||
| 20260501234639 | 64 | 62 | 0.0 | 0.0 | 0.00 | 0.00 | 0.00 | ||
| 20260501234139 | 64 | 62 | 0.0 | 0.0 | 0.00 | 0.00 | 0.00 | ||
| 20260501233639 | 65 | 62 | 0.0 | 0.0 | 0.00 | 0.00 | 0.00 | ||
| 20260501233139 | 64 | 62 | 0.0 | 0.0 | 0.00 | 0.00 | 0.00 | ||
| 20260501232139 | 64 | 73 | 0.0 | 0.0 | 0.00 | 0.00 | 0.00 | ||
| 20260501231639 | 65 | 41 | 1.0 | 3.0 | 0.00 | 0.00 | 0.00 | ||
| 20260501231139 | 65 | 96 | 1.0 | 3.0 | 0.00 | 0.00 | 0.00 | ||
| 20260501230639 | 65 | 189 | 0.0 | 0.0 | 0.00 | 0.00 | 0.00 | ||
| 20260501230139 | 65 | 189 | 0.0 | 0.0 | 0.00 | 0.00 | 0.00 | ||
| 20260501225639 | 65 | 68 | 0.0 | 0.0 | 0.00 | 0.00 | 0.00 | ||
| 20260501225139 | 65 | 110 | 2.0 | 3.0 | 0.00 | 0.00 | 0.00 | ||
| 20260501224639 | 65 | 46 | 0.0 | 0.0 | 0.00 | 0.00 | 0.00 | ||
| 20260501224139 | 65 | 56 | 2.0 | 7.0 | 0.00 | 0.00 | 0.00 | ||
| 20260501223639 | 65 | 75 | 1.0 | 2.0 | 0.00 | 0.00 | 0.00 | ||
| 20260501223139 | 65 | 127 | 1.0 | 2.0 | 0.00 | 0.00 | 0.00 | ||
| 20260501222639 | 65 | 80 | 0.0 | 1.0 | 0.00 | 0.00 | 0.00 | ||
| 20260501222139 | 65 | 89 | 2.0 | 1.0 | 0.00 | 0.00 | 0.00 | ||
| 20260501221639 | 65 | 76 | 1.0 | 3.0 | 0.00 | 0.00 | 0.00 | ||
| 20260501221139 | 65 | 65 | 2.0 | 6.0 | 0.00 | 0.00 | 0.00 | ||
| 20260501220639 | 65 | 92 | 1.0 | 3.0 | 0.00 | 0.00 | 0.00 | ||
| 20260501220139 | 65 | 101 | 2.0 | 3.0 | 0.00 | 0.00 | 0.00 | ||
| 20260501215639 | 66 | 107 | 1.0 | 2.0 | 0.00 | 0.00 | 0.00 | ||
| 20260501215139 | 66 | 63 | 1.0 | 4.0 | 0.00 | 0.00 | 0.00 | ||
| 20260501214639 | 66 | 48 | 4.0 | 7.0 | 0.00 | 0.00 | 0.00 | ||
| 20260501214140 | 66 | 46 | 3.0 | 10.0 | 0.00 | 0.00 | 0.00 | ||
| 20260501213639 | 66 | 89 | 4.0 | 3.0 | 0.00 | 0.00 | 0.00 | ||
| 20260501213139 | 66 | 77 | 2.0 | 7.0 | 0.00 | 0.00 | 0.00 | ||
| 20260501212640 | 66 | 17 | 1.0 | 1.0 | 0.00 | 0.00 | 0.00 | ||
| 20260501212139 | 66 | 35 | 2.0 | 3.0 | 0.00 | 0.00 | 0.00 | ||
| 20260501211639 | 67 | 56 | 1.0 | 4.0 | 0.00 | 0.00 | 0.00 | ||
| 20260501211139 | 67 | 86 | 5.0 | 2.0 | 0.00 | 0.00 | 0.00 | ||
| 20260501210639 | 67 | 318 | 1.0 | 2.0 | 0.00 | 0.00 | 0.00 | ||
| 20260501210139 | 67 | 28 | 1.0 | 3.0 | 0.00 | 0.00 | 0.00 | ||
| 20260501205639 | 67 | 49 | 2.0 | 4.0 | 0.00 | 0.00 | 0.00 | ||
| 20260501205140 | 67 | 96 | 3.0 | 6.0 | 0.00 | 0.00 | 0.00 | ||
| 20260501204640 | 68 | 92 | 2.0 | 2.0 | 0.00 | 0.00 | 0.00 | ||
| 20260501204139 | 68 | 76 | 3.0 | 2.0 | 0.00 | 0.00 | 0.00 | ||
| 20260501203139 | 67 | 66 | 1.0 | 4.0 | 0.00 | 0.00 | 0.00 | ||
| 20260501202639 | 67 | 63 | 3.0 | 5.0 | 0.00 | 0.00 | 0.00 | ||
| 20260501202139 | 67 | 101 | 1.0 | 2.0 | 0.00 | 0.00 | 0.00 | ||
| 20260501201640 | 67 | 23 | 1.0 | 2.0 | 0.00 | 0.00 | 0.00 | ||
| 20260501201139 | 67 | 93 | 2.0 | 1.0 | 0.00 | 0.00 | 0.00 | ||
| 20260501200639 | 67 | 65 | 2.0 | 7.0 | 0.00 | 0.00 | 0.00 | ||
| 20260501200344 | 68 | 49 | 3.0 | 6.0 | 0.00 | 0.00 | 0.00 | ||
| 20260501200140 | 68 | 49 | 3.0 | 6.0 | 0.00 | 0.00 | 0.00 | ||
| 20260501195639 | 67 | 359 | 3.0 | 8.0 | 0.00 | 0.00 | 0.00 | ||
| 20260501195139 | 67 | 23 | 0.0 | 5.0 | 0.00 | 0.00 | 0.00 | ||
| 20260501194639 | 68 | 69 | 4.0 | 8.0 | 0.00 | 0.00 | 0.00 | ||
| 20260501194140 | 69 | 75 | 4.0 | 9.0 | 0.00 | 0.00 | 0.00 | ||
| 20260501193640 | 69 | 120 | 2.0 | 3.0 | 0.00 | 0.00 | 0.00 | ||
| 20260501193140 | 68 | 73 | 4.0 | 7.0 | 0.00 | 0.00 | 0.00 | ||
| 20260501192640 | 67 | 130 | 4.0 | 6.0 | 0.00 | 0.00 | 0.00 | ||
| 20260501192140 | 66 | 72 | 4.0 | 6.0 | 0.00 | 0.00 | 0.00 | ||
| 20260501191640 | 66 | 90 | 3.0 | 5.0 | 0.00 | 0.00 | 0.00 | ||
| 20260501191140 | 66 | 3 | 4.0 | 10.0 | 0.00 | 0.00 | 0.00 | ||
| 20260501190640 | 65 | 338 | 3.0 | 2.0 | 0.00 | 0.00 | 0.00 | ||
| 20260501190140 | 65 | 48 | 4.0 | 12.0 | 0.00 | 0.00 | 0.00 | ||
| 20260501185640 | 66 | 80 | 6.0 | 5.0 | 0.00 | 0.00 | 0.00 | ||
| 20260501185140 | 66 | 84 | 1.0 | 2.0 | 0.00 | 0.00 | 0.00 | ||
| 20260501184640 | 66 | 134 | 5.0 | 8.0 | 0.00 | 0.00 | 0.00 | ||
| 20260501184140 | 67 | 94 | 2.0 | 7.0 | 0.00 | 0.00 | 0.00 | ||
| 20260501183640 | 66 | 21 | 4.0 | 5.0 | 0.00 | 0.00 | 0.00 | ||
| 20260501183140 | 66 | 32 | 3.0 | 8.0 | 0.00 | 0.00 | 0.00 | ||
| 20260501182640 | 67 | 20 | 2.0 | 2.0 | 0.00 | 0.00 | 0.00 | ||
| 20260501182140 | 68 | 61 | 4.0 | 7.0 | 0.00 | 0.00 | 0.00 | ||
| 20260501181640 | 68 | 52 | 2.0 | 4.0 | 0.00 | 0.00 | 0.00 | ||
| 20260501180640 | 70 | 110 | 2.0 | 3.0 | 0.00 | 0.00 | 0.00 | ||
| 20260501180140 | 69 | 138 | 1.0 | 3.0 | 0.00 | 0.00 | 0.00 | ||
| 20260501175640 | 70 | 359 | 4.0 | 4.0 | 0.00 | 0.00 | 0.00 | ||
| 20260501175140 | 70 | 70 | 5.0 | 10.0 | 0.00 | 0.00 | 0.00 | ||
| 20260501174640 | 71 | 115 | 4.0 | 10.0 | 0.00 | 0.00 | 0.00 | ||
| 20260501174141 | 70 | 49 | 5.0 | 9.0 | 0.00 | 0.00 | 0.00 | ||
| 20260501173640 | 71 | 80 | 6.0 | 13.0 | 0.00 | 0.00 | 0.00 | ||
| 20260501173140 | 71 | 132 | 3.0 | 7.0 | 0.00 | 0.00 | 0.00 | ||
| 20260501172640 | 71 | 72 | 4.0 | 9.0 | 0.00 | 0.00 | 0.00 | ||
| 20260501172140 | 69 | 56 | 6.0 | 4.0 | 0.00 | 0.00 | 0.00 | ||
| 20260501171640 | 70 | 65 | 5.0 | 9.0 | 0.00 | 0.00 | 0.00 | ||
| 20260501171140 | 69 | 79 | 5.0 | 9.0 | 0.00 | 0.00 | 0.00 | ||
| 20260501170641 | 68 | 61 | 3.0 | 5.0 | 0.00 | 0.00 | 0.00 | ||
| 20260501170140 | 67 | 63 | 2.0 | 2.0 | 0.00 | 0.00 | 0.00 | ||
| 20260501165640 | 68 | 317 | 1.0 | 5.0 | 0.00 | 0.00 | 0.00 | ||
| 20260501165140 | 66 | 335 | 4.0 | 7.0 | 0.00 | 0.00 | 0.00 | ||
| 20260501164640 | 67 | 130 | 4.0 | 6.0 | 0.00 | 0.00 | 0.00 | ||
| 20260501164140 | 66 | 128 | 4.0 | 8.0 | 0.00 | 0.00 | 0.00 | ||
| 20260501163640 | 65 | 48 | 2.0 | 7.0 | 0.00 | 0.00 | 0.00 | ||
| 20260501163141 | 65 | 51 | 4.0 | 2.0 | 0.00 | 0.00 | 0.00 | ||
| 20260501162640 | 66 | 322 | 3.0 | 4.0 | 0.00 | 0.00 | 0.00 | ||
| 20260501162140 | 65 | 27 | 3.0 | 2.0 | 0.00 | 0.00 | 0.00 | ||
| 20260501161641 | 65 | 25 | 2.0 | 2.0 | 0.00 | 0.00 | 0.00 | ||
| 20260501161140 | 64 | 83 | 2.0 | 3.0 | 0.00 | 0.00 | 0.00 |